Other Public Products
Issued by NWS Grand Forks, ND

Home | Current Version | Previous Version | Graphics & Text | Print | Product List | Glossary On
Versions: 1 2 3 4 5 6 7 8 9 10 11 12 13 14 15 16 17 18 19 20 21 22 23 24 25 26 27 28 29 30 31 32 33 34 35 36 37 38 39 40 41 42 43 44 45 46 47 48 49 50
000
FPUS83 KFGF 181610
OPUFGF
PRAIRIE TO PINES WEATHER ROUNDUP
NATIONAL WEATHER SERVICE EASTERN NORTH DAKOTA/GRAND FORKS ND
1100 AM CDT FRI AUG 18 2017

 **SATELLITE DATA USED TO AUGMENT SKY COVER AT AUTOMATED STATIONS**
 *****  WEATHER ACROSS EASTERN NORTH DAKOTA  *****

CITY           SKY/WX    TMP DP  RH WIND       PRES   REMARKS
GRAND FORKS    PTSUNNY   76  59  55 N12       29.85S
GRAND FORKS AF FAIR      74  59  60 NW5       29.86S
GRAND CITY NWS NOT AVBL
BUXTON           N/A     74  57  55 N9          N/A
DEVILS LAKE    PTSUNNY   69  57  65 NW13      29.91R
FARGO          FAIR      71  61  70 CALM      29.88S
WAHPETON ARPT  PTSUNNY   66  57  72 W3        29.91S
$$

 *****  WEATHER ACROSS CENTRAL AND WESTERN NORTH DAKOTA  *****

CITY           SKY/WX    TMP DP  RH WIND       PRES   REMARKS
JAMESTOWN      FAIR      68  60  75 N8        29.90R
BISMARCK       FAIR      70  57  63 NW9       29.97R
MINOT          FAIR      73  55  53 NW10      29.93S
MINOT AFB      FAIR      73  53  49 NW10      29.92S
GARRISON         N/A     70  57  63 NW7       29.95S
WILLISTON      FAIR      69  56  62 CALM      30.00R
DICKINSON      FAIR      73  53  49 W9        30.00R
HETTINGER      FAIR      72  52  49 NW6       30.03R
$$

 *****  OTHER OBSERVATIONS NORTHEAST NORTH DAKOTA  *****

CITY           SKY/WX    TMP DP  RH WIND       PRES   REMARKS
WALHALLA       FAIR      72  72 100 W9        29.85S
LANGDON        FAIR      70  66  88 W10       29.90S
CAVALIER       FAIR      70  61  73 W6        29.84S
GRAFTON        FAIR      68  61  77 W6        29.88S
CANDO          FAIR      72  61  68 W9        29.92F
FORT TOTTEN    NOT AVBL
ROLLA          FAIR      72  57  60 VRB3      29.92S
RUGBY          FAIR      68  61  77 W8        29.92S
 ***** THE ABOVE OBSERVATIONS ARE NON NWS ARE NOT QUALITY
        CONTROLLED AND MAY MIS-REPORT RAIN FOR SNOW...
$$

 *****  OTHER OBSERVATIONS SOUTHEAST NORTH DAKOTA *****

CITY           SKY/WX    TMP DP  RH WIND       PRES   REMARKS
COOPERSTOWN    FAIR      73  63  68 N14       29.89S
VALLEY CITY      N/A     68  63  83 NW9       29.91S
OAKES          NOT AVBL
GWINNER        CLOUDY    59  59 100 NE7       29.93R
SHEYENNE NWR     N/A     66  62  87 W3        29.95
BUFFALO          N/A     67  59  73 CALM        N/A
WYNDMERE       NOT AVBL
 ***** THE ABOVE OBSERVATIONS ARE NON NWS ARE NOT QUALITY
       CONTROLLED AND MAY MIS-REPORT RAIN FOR SNOW...
$$

  *****  WEATHER ACROSS NORTHERN MINNESOTA  *****

CITY           SKY/WX    TMP DP  RH WIND       PRES   REMARKS
FLAG ISLAND    FAIR      70  55  60 CALM      29.80F
WARROAD        FAIR      72  61  68 CALM      29.83F
ROSEAU         FAIR      73  59  60 CALM      29.84F
HALLOCK        FAIR      70  59  68 SW3       29.84S
THF RVR FALLS  FAIR      74  57  55 N13       29.87S
HALSTAD        NOT AVBL
FOSSTON        FAIR      75  59  57 NW9       29.87S
BAUDETTE       FAIR      72  56  57 NW10      29.84S
WASKISH        FAIR      72  61  68 W5        29.85S
CROOKSTON      FAIR      73  59  60 N7        29.86S
$$
  *****  WEATHER ACROSS CENTRAL AND WEST MINNESOTA  *****

CITY           SKY/WX    TMP DP  RH WIND       PRES   REMARKS
BEMIDJI        FAIR      74  60  62 NW8       29.87R
PARK RAPIDS    FAIR      74  62  66 CALM      29.88S
WADENA         FAIR      70  61  73 CALM      29.89S
DETROIT LAKES  LGT RAIN  66  59  77 W5        29.91S
MOORHEAD       FAIR      66  63  88 SW5       29.90R
FERGUS FALLS   PTSUNNY   66  66 100 W7        29.90R
ELBOW LAKE     PTSUNNY   66  62  88 W6        29.91R FOG
MORRIS MN      FAIR      70  63  78 S7        29.89S
STAPLES        PTSUNNY   70  61  73 W3        29.90R
WHEATON        LGT RAIN  66  61  82 NW6       29.91R
$$
  *****  WEATHER ELSEWHERE ACROSS MINNESOTA  *****

CITY           SKY/WX    TMP DP  RH WIND       PRES   REMARKS
DULUTH         FAIR      65  59  81 NW7       29.86S
INTRNTL FALLS  FAIR      71  60  68 W7        29.83F
ELY            FAIR      63  55  77 CALM      29.85S
CLOQUET        FAIR      66  57  72 CALM      29.87R
BRAINERD       FAIR      65  61  87 CALM      29.89R
HIBBING        FAIR      64  60  87 CALM      29.86S
ALEXANDRIA     FAIR      68  61  78 SW8       29.93R
SAINT CLOUD    CLOUDY    65  63  93 SW3       29.89R
MINNEAPOLIS    LGT RAIN  66  62  87 SW7       29.90S
$$

  *****  WEATHER ACROSS SOUTH DAKOTA  *****

CITY           SKY/WX    TMP DP  RH WIND       PRES   REMARKS
SIOUX FALLS    FAIR      73  62  68 S9        29.94S
BROOKINGS      FAIR      70  61  73 S7        29.94S
WATERTOWN      FAIR      72  60  66 SW9       29.90S
HURON          FAIR      72  62  71 SW9       29.91R
SISSETON         N/A     68  61  78 N5        29.89R
ABERDEEN       FAIR      71  61  70 SW13G23   29.89R
MITCHELL       FAIR      73  63  70 SW9       29.91F
PIERRE         FAIR      73  59  61 W9        29.95R
MOBRIDGE       FAIR      69  58  67 N14       29.94R
RAPID CITY     FAIR      74  48  39 NW12      30.06S
$$

  *****  SOME WEATHER IN NEARBY STATES *****

CITY           SKY/WX    TMP DP  RH WIND       PRES   REMARKS
GLASGOW MT     FAIR      70  48  45 CALM      29.98S
GREAT FALLS MT FAIR      74  37  26 SW16      30.05S
CHEYENNE WY    FAIR      72  42  34 S6        30.27R
SCOTTSBLUFF NE FAIR      71  52  50 W8        30.14F
OMAHA NE       FAIR      80  62  54 NW6       29.94S
DES MOINES IA  FAIR      75  62  64 S5        29.92S
DAVENPORT IA   FAIR      74  61  63 NW7       29.95R
CHICAGO IL     PTSUNNY   72  60  66 W14       29.88R
EAU CLAIRE WI  FAIR      70  60  70 NW9       29.86R
LA CROSSE WI   FAIR      74  60  61 NW12      29.90R
$$

  *****  SOME NATIONAL WEATHER *****

CITY           SKY/WX    TMP DP  RH WIND       PRES   REMARKS
LA GUARDIA NY  CLOUDY    79  77  94 S8        29.86F
RALEIGH NC     FAIR      92  75  57 W9        29.93F HX 103
ATLANTA GA     PTSUNNY   83  72  69 W9        30.03S
NEW ORLEANS LA FAIR      88  78  72 W6        30.06S HX 101
OKLAHOMA CITY  PTSUNNY   81  66  60 S7        30.02F
ALBUQUERQUE NM FAIR      77  40  26 CALM      30.26S
SALT LAKE CITY FAIR      78  43  28 SE3       30.16S
LOS ANGELES CA PTSUNNY   69  63  81 W5        30.01S
BOISE ID       FAIR      71  41  33 CALM      30.11S
SEATTLE WA     PTSUNNY   60  54  80 S5        30.18S
$$

*** WEATHER ACROSS MANITOBA...SASKATCHEWAN AND ONTARIO ***
                ***ONTARIO***

CITY           SKY/WX    TMP DP  RH WIND       PRES   REMARKS
GERALDTON      DRIZZLE   59  57  94 N10       29.73R
THUNDER BAY    PTSUNNY   68  55  64 N15G22    29.76S
SIOUX LOOKOUT  MOSUNNY   68  61  77 SW5       29.81S
TORONTO        PTSUNNY   79  64  61 SW18G24   29.69R
BIG TROUT LK   SUNNY     68  59  73 S8        29.73F
PICKLE LAKE    MOSUNNY   68  54  60 N3        29.77F
DRYDEN         SUNNY     70  57  64 W6        29.81F
KENORA         PTSUNNY   72  54  53 W7        29.82F
$$
                *** MANITOBA***

CITY           SKY/WX    TMP DP  RH WIND       PRES   REMARKS
BRANDON        MOSUNNY   73  55  53 W13       29.88S
DAUPHIN        SUNNY     75  57  53 W12       29.84F
ISLAND LAKE    MOSUNNY   70  61  73 SW2       29.73S
PILOT MOUND      N/A     70  59  68 W7          N/A
THE PAS        MOSUNNY   72  55  56 W9        29.77F
THOMPSON       PTSUNNY   64  54  68 W6        29.68S SMOKE
WINNIPEG       SUNNY     73  63  68 NW7       29.82S
LYNN LAKE      PTSUNNY   66  55  68 MISG      29.69F
CHURCHILL      CLOUDY    61  55  82 N5        29.59F SMOKE
GILLAM         PTSUNNY   72  54  53 S7        29.62F
$$
                ***SASKATCHEWAN***

CITY           SKY/WX    TMP DP  RH WIND       PRES   REMARKS
ESTEVAN        MOSUNNY   72  54  53 NW7       29.96F
KINDERSLEY     SUNNY     70  50  49 SE8       29.92F
LLOYDMINSTER   MOSUNNY   66  52  59 SW12      29.87F
PRINCE ALBERT  MOSUNNY   70  55  60 W7        29.88F
REGINA         MOSUNNY   70  48  46 W5        29.95F
YORKTON        SUNNY     72  57  60 W10       29.90F



USA.gov is the U.S. government's official web portal to all federal, state and local government web resources and services.